Regional Weather Roundup
Issued by NWS Kansas City/Pleasant Hill, MO

Home | Current Version | Previous Version | Text Only | Print | Product List | Glossary On
Versions: 1 2 3 4 5 6 7 8 9 10 11 12 13 14 15 16 17 18 19 20 21 22 23 24 25 26 27 28 29 30 31 32 33 34 35 36 37 38 39 40 41 42 43 44 45 46 47 48 49 50
633
ASUS43 KEAX 200110
RWREAX

WEATHER ROUNDUP FOR EASTERN KANSAS AND NORTHWEST MISSOURI
NATIONAL WEATHER SERVICE KANSAS CITY/PLEASANT HILL MO
700 PM CST THU JAN 19 2017

KSZ040-057-103>105-MOZ028-029-037-043-200200-
...KANSAS CITY METROPOLITAN AREA...

CITY           SKY/WX    TMP DP  RH WIND       PRES   REMARKS
K.C. INTL      CLOUDY    47  43  86 CALM      29.63F
K.C. DOWNTOWN  CLOUDY    49  46  90 E5        29.64S
LEES SUMMIT    CLOUDY    47  47 100 E5        29.64F
OLATHE - IXD   CLOUDY    47  46  97 SE3       29.64S
OLATHE - OJC   CLOUDY    46  46 100 E3        29.64S
LAWRENCE       CLOUDY    46  46 100 CALM      29.64S

$$

MOZ001>008-011>017-020>025-030>033-038>040-044>046-053-054-200200-
...NORTHERN AND CENTRAL MISSOURI...

CITY           SKY/WX    TMP DP  RH WIND       PRES   REMARKS
ST. JOSEPH     CLOUDY    46  45  96 S6        29.65S
MOSBY          CLOUDY    46  46 100 CALM      29.65S
WARRENSBURG    CLOUDY    46  45  93 NE3       29.65S FOG
WHITEMAN AFB   NOT AVBL
CLINTON        FOG       48  48 100 CALM      29.65F VSB 1
SEDALIA        CLOUDY    49  48  97 CALM      29.67S FOG
WARSAW         NOT AVBL
CHILLICOTHE      N/A     45  45 100 CALM      29.67F
KIRKSVILLE     FOG       43  42  97 E5        29.68S VSB 1/4

$$

MOZ041-047>049-056>058-063>065-088>090-097-200200-
...EASTERN AND SOUTHERN MISSOURI...

CITY           SKY/WX    TMP DP  RH WIND       PRES   REMARKS
ST. LOUIS INTL FOG       48  46  93 E3        29.70F VSB 1/2
SPIRIT OF STL  FOG       46  46 100 NE5       29.69F VSB 1/2
COLUMBIA       FOG       48  47  96 E5        29.66F VSB<1/4
JEFFERSON CITY CLOUDY    48  48 100 E5        29.67S FOG
ROLLA          FOG       48  48 100 E7        29.64F VSB 1/2
OSAGE BEACH    LGT RAIN  48  48 100 NE5       29.66S FOG
SPRINGFIELD    CLOUDY    51  49  92 CALM      29.62F
BRANSON        PTCLDY    46  46 100 SE8       29.65S
JOPLIN         CLEAR     45  45 100 CALM      29.61F
WEST PLAINS    FOG       49  49 100 SE6       29.68R VSB 1/4

$$

IAZ060-094-KSZ022-034>040-054-083-096-NEZ052-066-093-200200-
...KANSAS...SOUTHEAST NEBRASKA AND IOWA...

CITY           SKY/WX    TMP DP  RH WIND       PRES   REMARKS
TOPEKA         LGT RAIN  47  44  90 CALM      29.64S
MANHATTAN      CLOUDY    46  44  93 S3        29.63R FOG
EMPORIA        LGT RAIN  46  45  96 CALM      29.62S FOG
CHANUTE        CLOUDY    50  45  83 SE5       29.62S
WICHITA        CLOUDY    48  44  86 E8        29.59S
OMAHA          FOG       42  38  85 CALM      29.66S VSB 1/2
LINCOLN        FOG       41  41 100 CALM      29.66R VSB 1/2
FALLS CITY     FOG       43  42  97 CALM      29.65R VSB 1/4
LAMONI         FOG       41  41 100 NE5       29.66F VSB 1/4
DES MOINES     DRZL/FOG  38  37  97 E5        29.69F VSB 1/2 WCI  34

$$





USA.gov is the U.S. government's official web portal to all federal, state and local government web resources and services.